Regional Weather Roundup
Issued by NWS Raleigh/Durham, NC

Home | Current Version | Previous Version | Text Only | Print | Product List | Glossary On
Versions: 1 2 3 4 5 6 7 8 9 10 11 12 13 14 15 16 17 18 19 20 21 22 23 24 25 26 27 28 29 30 31 32 33 34 35 36 37 38 39 40 41 42 43 44 45 46 47 48 49 50
000
ASUS42 KRAH 281610
RWRRAH
NORTH CAROLINA WEATHER ROUNDUP
NATIONAL WEATHER SERVICE RALEIGH NC
1100 AM EST FRI NOV 28 2014

NOTE: "FAIR" INDICATES FEW OR NO CLOUDS BELOW 12,000 FEET WITH NO
SIGNIFICANT WEATHER AND/OR OBSTRUCTIONS TO VISIBILITY.

NCZ001-053-055-056-065-067-281700-
WESTERN NORTH CAROLINA

CITY           SKY/WX    TMP DP  RH WIND       PRES   REMARKS
ASHEVILLE      SUNNY     33  18  53 N13       30.33F WCI  24
JEFFERSON      MOSUNNY   26  13  57 W12       30.26R WCI  16
MORGANTON      SUNNY     38  20  47 N6        30.39F WCI  33
HICKORY        SUNNY     37  18  46 N6        30.35S WCI  32
RUTHERFORDTON  SUNNY     38  18  44 N5        30.38S WCI  35
MOUNT AIRY     SUNNY     36  19  50 NW9       30.37S WCI  29
BOONE          PTSUNNY   25  16  68 W14       30.28S WCI  13
$$

NCZ021-022-025-041-071-084-088-281700-
CENTRAL NORTH CAROLINA

CITY           SKY/WX    TMP DP  RH WIND       PRES   REMARKS
CHARLOTTE      MOSUNNY   41  18  39 NE7       30.38S
GREENSBORO     MOSUNNY   37  17  44 NW8       30.36R WCI  31
WINSTON-SALEM  SUNNY     38  17  42 N5        30.36F WCI  34
RALEIGH-DURHAM MOSUNNY   40  19  43 NW9       30.37F WCI  34
FORT BRAGG     SUNNY     41  19  40 N12G17    30.37F
FAYETTEVILLE   SUNNY     43  20  39 N12       30.38S
BURLINGTON     SUNNY     38  17  42 NW8       30.36F WCI  32
LAURINBURG     SUNNY     42  19  39 N8G18     30.39F
$$

NCZ011-015-027-028-043-044-047-080-103-281700-
NORTHEASTERN NORTH CAROLINA

CITY           SKY/WX    TMP DP  RH WIND       PRES   REMARKS
ROCKY MT-WILSO SUNNY     41  21  44 NW10      30.36F
GREENVILLE     SUNNY     41  23  48 N9        30.36F
WASHINGTON     SUNNY     41  24  51 N9        30.35F
ELIZABETH CITY MOSUNNY   44  27  51 N13       30.32S
MANTEO         SUNNY     41  26  53 NW16G25   30.31S
CAPE HATTERAS  SUNNY     42  29  59 N9G20     30.30S
$$

NCZ078-087-090-091-093-098-101-281700-
SOUTHEASTERN NORTH CAROLINA

CITY           SKY/WX    TMP DP  RH WIND       PRES   REMARKS
LUMBERTON      SUNNY     44  22  41 N12       30.38F
GOLDSBORO      SUNNY     42  23  46 N14       30.34F
KINSTON        SUNNY     43  23  45 NW8G16    30.36F
KENANSVILLE    SUNNY     42  22  46 N12G17    30.37F
NEW BERN       SUNNY     43  25  49 N12       30.36S
CHERRY POINT   SUNNY     44  25  47 N14G20    30.35S
BEAUFORT       SUNNY     44  25  47 N14       30.33S
JACKSONVILLE     N/A    N/A N/A N/A MISG      30.35S
WILMINGTON     SUNNY     44  23  43 N13       30.35F
$$



USA.gov is the U.S. government's official web portal to all federal, state and local government web resources and services.